FW1782 Weather Reports


time (UTC)temp
C
wind
direction
speed
KPH
gust
KPH
rain 1hr
cm
rain 24hr
cm
rain mn
cm
humidity
%
barometer
mb
20260504044523 11 359 0.0 3.2 0.00 0.00 0.00 63 1006.4
20260504043018 12 359 0.0 0.0 0.00 0.00 0.00 60 1006.5
20260504041514 12 359 0.0 0.0 0.00 0.00 0.00 58 1006.8
20260504040114 13 359 0.0 4.8 0.00 0.00 0.00 54 1006.9
20260504034552 13 359 0.0 3.2 0.00 0.00 0.00 51 1007.0
20260504033054 14 359 1.6 4.8 0.00 0.00 0.00 49 1007.2
20260504031546 15 359 0.0 3.2 0.00 0.00 0.00 50 1007.3
20260504030039 15 359 1.6 3.2 0.00 0.00 0.00 48 1007.2
20260504024516 16 359 0.0 4.8 0.00 0.00 0.00 46 1007.3
20260504023010 16 359 4.8 8.0 0.00 0.00 0.00 46 1007.2
20260504021505 16 359 3.2 6.4 0.00 0.00 0.00 44 1007.1
20260504020104 17 359 3.2 9.7 0.00 0.00 0.00 41 1006.9
20260504014553 18 359 4.8 12.9 0.00 0.00 0.00 40 1006.8
20260504013040 18 359 6.4 14.5 0.00 0.00 0.00 38 1006.9
20260504011530 19 359 6.4 14.5 0.00 0.00 0.00 36 1006.6
20260504010008 20 359 8.0 20.9 0.00 0.00 0.00 34 1006.5
20260504004505 21 359 8.0 17.7 0.00 0.00 0.00 32 1006.4
20260504003103 21 359 12.9 25.7 0.00 0.00 0.00 31 1006.4
20260504001603 21 359 16.1 29.0 0.00 0.00 0.00 30 1006.4
20260504000056 22 359 16.1 30.6 0.00 0.00 0.00 29 1006.3
20260503234531 22 359 14.5 25.7 0.00 0.00 0.00 30 1006.2
20260503233029 22 359 14.5 20.9 0.00 0.00 0.00 30 1006.2
20260503231524 22 359 11.3 25.7 0.00 0.00 0.00 30 1006.3
20260503230001 22 359 14.5 37.0 0.00 0.00 0.00 29 1006.1
20260503224602 23 359 17.7 37.0 0.00 0.00 0.00 28 1006.2
20260503223056 23 359 20.9 35.4 0.00 0.00 0.00 27 1006.2
20260503221558 23 359 19.3 41.8 0.00 0.00 0.00 26 1006.1
20260503220057 23 359 14.5 30.6 0.00 0.00 0.00 30 1006.0
20260503214531 23 359 16.1 29.0 0.00 0.00 0.00 30 1006.1
20260503213021 23 359 19.3 32.2 0.00 0.00 0.00 30 1006.0
20260503211514 23 359 24.1 37.0 0.00 0.00 0.00 31 1006.0
20260503210113 23 359 19.3 33.8 0.00 0.00 0.00 31 1006.1
20260503204602 23 359 12.9 29.0 0.00 0.00 0.00 32 1006.1
20260503203049 22 359 14.5 37.0 0.00 0.00 0.00 34 1006.3
20260503201541 22 359 20.9 33.8 0.00 0.00 0.00 35 1006.4
20260503200044 22 359 12.9 35.4 0.00 0.00 0.00 36 1006.6
20260503194517 22 359 16.1 37.0 0.00 0.00 0.00 35 1006.4
20260503193012 22 359 20.9 40.2 0.00 0.00 0.00 37 1006.7
20260503191509 22 359 14.5 32.2 0.00 0.00 0.00 37 1006.6
20260503190109 22 359 17.7 32.2 0.00 0.00 0.00 37 1006.6
20260503184542 22 359 12.9 27.4 0.00 0.00 0.00 38 1006.6
20260503183036 22 359 12.9 33.8 0.00 0.00 0.00 39 1006.8
20260503181534 22 359 9.7 37.0 0.00 0.00 0.00 40 1007.0
20260503180009 21 359 19.3 32.2 0.00 0.00 0.00 40 1007.2
20260503174503 21 359 12.9 24.1 0.00 0.00 0.00 43 1007.3
20260503173208 20 359 11.3 27.4 0.00 0.00 0.00 44 1007.4
20260503171556 20 359 12.9 30.6 0.00 0.00 0.00 45 1007.8
20260503160117 17 359 17.7 45.1 0.00 0.00 0.00 49 1008.1
20260503140105 13 359 11.3 40.2 0.00 0.00 0.00 55 1009.2
20260503110117 10 359 14.5 25.7 0.00 0.00 0.00 64 1010.7
20260503090106 11 359 3.2 12.9 0.00 0.00 0.00 58 1013.1
20260503081548 11 359 1.6 12.9 0.00 0.00 0.00 58 1014.0
20260503071601 11 359 9.7 19.3 0.00 0.00 0.00 53 1014.2